TimeCDT,TemperatureF,Dew PointF,Humidity,Sea Level PressureIn,VisibilityMPH,Wind Direction,Wind SpeedMPH,Gust SpeedMPH,PrecipitationIn,Events,Conditions,WindDirDegrees,DateUTC
12:15 AM,44.6,41.0,87,29.73,10.0,ENE,12.7,17.3,N/A,,Mostly Cloudy,60,2014-04-13 05:15:00
12:35 AM,46.4,42.8,87,29.73,10.0,ENE,8.1,-,N/A,,Mostly Cloudy,70,2014-04-13 05:35:00
12:55 AM,46.4,42.8,87,29.72,10.0,East,5.8,-,N/A,,Overcast,90,2014-04-13 05:55:00
1:15 AM,46.4,42.8,87,29.70,10.0,East,3.5,-,N/A,,Overcast,90,2014-04-13 06:15:00
1:35 AM,46.4,41.0,81,29.71,10.0,ESE,6.9,16.1,N/A,,Overcast,120,2014-04-13 06:35:00
1:55 AM,46.4,42.8,87,29.70,10.0,Calm,Calm,-,N/A,,Overcast,0,2014-04-13 06:55:00
2:15 AM,46.4,42.8,87,29.71,10.0,Calm,Calm,-,N/A,,Mostly Cloudy,0,2014-04-13 07:15:00
2:35 AM,44.6,42.8,93,29.69,10.0,Calm,Calm,-,N/A,Rain,Light Rain,0,2014-04-13 07:35:00
2:55 AM,44.6,42.8,93,29.71,10.0,North,5.8,-,N/A,,Overcast,360,2014-04-13 07:55:00
3:15 AM,46.4,42.8,87,29.70,7.0,NE,6.9,-,0.01,Rain,Light Rain,50,2014-04-13 08:15:00
3:35 AM,46.4,42.8,87,29.76,3.0,Calm,Calm,-,0.16,Rain,Rain,0,2014-04-13 08:35:00
3:55 AM,46.4,44.6,93,29.68,7.0,SSE,4.6,-,0.20,Rain,Light Rain,150,2014-04-13 08:55:00
4:15 AM,46.4,44.6,93,29.69,7.0,SSW,5.8,-,0.01,,Mostly Cloudy,200,2014-04-13 09:15:00
4:35 AM,46.4,42.8,87,29.67,5.0,Calm,Calm,-,0.01,,Scattered Clouds,0,2014-04-13 09:35:00
4:55 AM,44.6,42.8,93,29.66,4.0,Calm,Calm,-,0.01,,Clear,0,2014-04-13 09:55:00
5:15 AM,44.6,41.0,87,29.67,0.8,SW,3.5,-,N/A,,Scattered Clouds,220,2014-04-13 10:15:00
5:35 AM,44.6,42.8,93,29.68,1.2,WNW,6.9,-,N/A,,Mist,290,2014-04-13 10:35:00
5:55 AM,44.6,42.8,93,29.62,2.5,NNE,6.9,-,N/A,,Clear,20,2014-04-13 10:55:00
6:15 AM,44.6,42.8,93,29.63,3.0,Calm,Calm,-,N/A,,Clear,0,2014-04-13 11:15:00
6:35 AM,42.8,41.0,93,29.67,0.8,SW,3.5,-,N/A,,Mist,220,2014-04-13 11:35:00
6:45 AM,44.6,42.8,93,29.70,0.5,SSW,5.8,-,N/A,Fog,Fog,210,2014-04-13 11:45:00
7:45 AM,48.2,46.4,93,29.72,3.0,NNW,9.2,-,N/A,,Clear,340,2014-04-13 12:45:00
8:01 AM,48.2,46.4,93,29.74,1.5,NNW,8.1,-,N/A,,Mostly Cloudy,340,2014-04-13 13:01:00
8:45 AM,48.2,46.4,93,29.77,-9999.0,NW,8.1,-,N/A,,Overcast,320,2014-04-13 13:45:00
9:45 AM,48.2,46.4,93,29.75,1.2,North,6.9,-,N/A,,Overcast,350,2014-04-13 14:45:00
10:45 AM,48.2,46.4,93,29.78,3.0,Calm,Calm,-,N/A,,Overcast,0,2014-04-13 15:45:00
11:45 AM,53.6,48.2,82,29.78,10.0,NNW,9.2,-,N/A,,Mostly Cloudy,340,2014-04-13 16:45:00
12:45 PM,55.4,48.2,77,29.79,10.0,Calm,Calm,-,N/A,,Overcast,0,2014-04-13 17:45:00
1:45 PM,46.4,41.0,81,29.77,5.0,ENE,13.8,19.6,N/A,,Haze,60,2014-04-13 18:45:00
2:45 PM,42.8,39.2,87,29.75,3.0,ENE,9.2,-,N/A,,Overcast,60,2014-04-13 19:45:00
3:45 PM,41.0,37.4,87,29.76,1.0,ENE,8.1,-,N/A,,Overcast,70,2014-04-13 20:45:00
4:45 PM,39.2,39.2,100,29.72,2.0,NE,8.1,-,N/A,Rain,Light Rain,50,2014-04-13 21:45:00
5:45 PM,41.0,39.2,93,29.70,3.0,ENE,8.1,17.3,N/A,Rain,Light Rain,70,2014-04-13 22:45:00
6:45 PM,41.0,37.4,87,29.61,2.0,NE,12.7,19.6,N/A,Rain,Rain,40,2014-04-13 23:45:00
7:45 PM,39.2,37.4,93,29.62,2.0,NNE,9.2,16.1,N/A,Rain,Rain,30,2014-04-14 00:45:00
8:45 PM,41.0,39.2,93,29.57,7.0,East,3.5,19.6,N/A,,Overcast,80,2014-04-14 01:45:00
9:15 PM,41.0,37.4,87,29.56,5.0,NE,12.7,-,0.02,Rain,Light Rain,50,2014-04-14 02:15:00
9:35 PM,41.0,37.4,87,29.55,10.0,NE,9.2,-,0.06,Rain,Light Rain,40,2014-04-14 02:35:00
9:55 PM,41.0,37.4,87,29.53,10.0,NNE,13.8,-,0.06,Rain,Light Rain,30,2014-04-14 02:55:00
10:15 PM,41.0,37.4,87,29.52,7.0,NNE,10.4,16.1,0.02,Rain,Rain,30,2014-04-14 03:15:00
10:35 PM,41.0,39.2,93,29.52,7.0,NNE,6.9,19.6,0.06,Rain,Rain,20,2014-04-14 03:35:00
10:55 PM,42.8,41.0,93,29.51,7.0,NNE,17.3,-,0.12,Rain,Rain,30,2014-04-14 03:55:00
11:15 PM,42.8,41.0,93,29.50,10.0,North,24.2,31.1,0.02,Rain,Light Rain,10,2014-04-14 04:15:00
11:35 PM,41.0,39.2,93,29.49,3.0,NNE,24.2,32.2,0.12,,Unknown,20,2014-04-14 04:35:00
11:55 PM,39.2,37.4,93,29.53,4.0,North,16.1,25.3,0.17,Rain,Rain,10,2014-04-14 04:55:00